{"data":{"norad_id":62323,"epoch":"2026-05-25T04:23:07.168704Z","epoch_age_seconds":55684,"freshness":"FRESH","line1":"1 62323U 24240A   26145.18272186  .00000016  00000+0  28582-5 0  9997","line2":"2 62323  86.5000 351.0024 0001498  81.7627 278.3677 13.24408899 69592","mean_motion":13.24408899,"eccentricity":0.0001498,"inclination_deg":86.5,"raan_deg":351.0024,"arg_perigee_deg":81.7627,"mean_anomaly_deg":278.3677,"bstar":2.8582e-6,"rev_number":6959,"period_min":108.72775025049,"perigee_km":1166.7959674314,"apogee_km":1169.0567680164,"semimajor_km":7546.0633677239,"source":"CELESTRAK","updated_at":"2026-05-25T13:38:02.935018Z"}}